Flag for Germany

Past Weather in Schönebeck, Saxony-Anhalt, Germany — Yesterday and Last 2 Weeks

Now
84 °F

Passing clouds.


Feels Like: 84 °F
Forecast: 93 / 65 °F
Wind: 6 mph from Southeast

Location: Leipzig-Schkeuditz

Current Time: Aug 7, 2020 at 12:31:01 pm

Latest Report: Aug 7, 2020 at 11:50 am


Visibility: N/A

Pressure: 30.18 "Hg

Humidity: 43%

Dew Point: 59 °F

Location of SchönebeckLocation

Past Weather in Schönebeck — Graph

°F

Schönebeck Temperature Yesterday

Maximum temperature yesterday: 86 °F (at 3:20 pm)
Minimum temperature yesterday: 59 °F (at 4:50 am)
Average temperature yesterday: 74 °F

High & Low Weather Summary for the Past Weeks

 TemperatureHumidityPressure
High91 °F (Aug 1, 3:20 pm)100% (Jul 26, 1:50 pm)30.18 "Hg (Jul 26, 1:50 pm)
Low54 °F (Jul 30, 4:20 am)20% (Aug 6, 3:20 pm)29.74 "Hg (Jul 28, 4:50 am)
Average70 °F56%29.98 "Hg
* Reported Jul 23 11:20 am — Aug 7 11:20 am, Schönebeck. Weather by CustomWeather, © 2020

Note: Actual official high and low records may vary slightly from our data, if they occured in-between our weather recording intervals... More about our weather records

Schönebeck Weather History for the Previous 24 Hours

Scroll right to see more
 ConditionsComfort  
Time TempWeatherWind HumidityBarometerVisibility
11:20 am
Fri, Aug 7
82 °FPassing clouds.6 mph45%30.18 "HgN/A
10:50 am82 °FPassing clouds.7 mph45%30.18 "HgN/A
10:20 am81 °FPassing clouds.7 mph45%30.18 "HgN/A
9:50 am79 °FPassing clouds.8 mph48%30.18 "HgN/A
9:20 am77 °FSunny.9 mph54%30.18 "Hg10 mi
8:50 am73 °FSunny.9 mph61%30.18 "Hg10 mi
8:20 am72 °FPassing clouds.5 mph65%30.18 "HgN/A
7:50 am70 °FPassing clouds.6 mph69%30.18 "HgN/A
7:20 am66 °FSunny.6 mph78%30.18 "Hg10 mi
6:50 am64 °FSunny.7 mph83%30.18 "Hg10 mi
6:20 am63 °FSunny.7 mph83%30.18 "Hg10 mi
5:50 am63 °FSunny.7 mph83%30.15 "Hg10 mi
5:20 am63 °FClear.8 mph83%30.15 "Hg10 mi
4:50 am63 °FClear.8 mph83%30.15 "Hg10 mi
4:20 am64 °FClear.8 mph78%30.15 "Hg10 mi
3:50 am64 °FClear.8 mph78%30.15 "Hg10 mi
3:20 am66 °FClear.8 mph73%30.15 "Hg10 mi
2:50 am66 °FClear.7 mph73%30.15 "Hg10 mi
2:20 am68 °FClear.8 mph69%30.18 "Hg10 mi
1:50 am66 °FClear.7 mph73%30.18 "Hg10 mi
1:20 am66 °FClear.7 mph68%30.18 "Hg10 mi
12:50 am68 °FClear.12 mph64%30.18 "Hg10 mi
12:20 am66 °FClear.9 mph64%30.18 "Hg10 mi
11:50 pm
Thu, Aug 6
72 °FClear.9 mph53%30.18 "Hg10 mi
11:20 pm72 °FClear.8 mph50%30.15 "Hg10 mi
10:50 pm73 °FClear.8 mph47%30.15 "Hg10 mi
10:20 pm75 °FClear.7 mph44%30.15 "Hg10 mi
9:50 pm77 °FClear.7 mph42%30.15 "Hg10 mi
9:20 pm77 °FClear.8 mph42%30.15 "Hg10 mi
8:50 pm79 °FClear.8 mph37%30.15 "Hg10 mi
8:20 pm81 °FSunny.8 mph37%30.12 "Hg10 mi
7:50 pm82 °FSunny.8 mph32%30.12 "Hg10 mi
7:20 pm84 °FPassing clouds.9 mph31%30.12 "HgN/A
6:50 pm84 °FPassing clouds.8 mph29%30.12 "HgN/A
6:20 pm86 °FSunny.5 mph25%30.12 "Hg10 mi
5:50 pm86 °FPassing clouds.9 mph24%30.12 "HgN/A
5:20 pm86 °FPassing clouds.10 mph24%30.12 "HgN/A
4:50 pm86 °FPassing clouds.7 mph25%30.12 "HgN/A
4:20 pm86 °FPassing clouds.5 mph25%30.12 "HgN/A
3:50 pm86 °FSunny.6 mph20%30.15 "Hg10 mi
3:20 pm86 °FPassing clouds.7 mph20%30.15 "HgN/A
2:20 pm84 °FPassing clouds.7 mph23%30.15 "HgN/A
1:50 pm84 °FSunny.7 mph25%30.15 "Hg10 mi
1:20 pm82 °FSunny.6 mph28%30.15 "Hg10 mi
12:50 pm82 °FSunny.5 mph30%30.15 "Hg10 mi
12:20 pm81 °FSunny.6 mph30%30.15 "Hg10 mi
Weather by CustomWeather, © 2020

See weather overview